Date_and_time,latitude,longitude,wind_speed,RelWindDirFrom,WindDirFrom,air_pressure,air_temperature,relative_humidity,Temp,platform_speed_wrt_ground,air_pressure_at_mean_sea_level,platform_orientation
2019-03-13 23:50,50.6304483333333,-96.9807733333333,5.7,7.7,9,981.21,-3.7,99,0.75,0.0,1009.23,125.3
2019-03-14 00:00,50.6304483333333,-96.9807716666667,5.8,7.0,22,981.36,-3.8,99,0.75,0.0,1009.37,347.4
2019-03-14 00:10,50.6304483333333,-96.98077,5.1,5.8,25,981.43,-4.3,99,0.76,0.0,1009.48,347.4
2019-03-14 00:20,50.6304483333333,-96.9807683333333,5.8,7.7,5,981.42,-4.4,99,0.77,0.0,1009.47,347.4
2019-03-14 00:30,50.6304483333333,-96.9807683333333,6.2,7.3,3,981.53,-4.1,99,0.78,0.0,1009.58,347.4
2019-03-14 00:40,50.6304483333333,-96.9807683333333,6.7,8.4,357,981.55,-3.7,99,0.76,0.0,1009.59,347.4
2019-03-14 00:50,50.6304516666667,-96.98076,6.7,8.0,360,981.57,-3.2,99,0.76,0.0,1009.60,347.4
2019-03-14 01:00,50.6304416666667,-96.980745,6.4,7.9,359,981.59,-3.0,98,0.77,0.0,1009.61,270.0
2019-03-14 01:10,50.630435,-96.9807633333333,6.4,8.6,358,981.62,-3.0,98,0.76,0.0,1009.64,270.0
2019-03-14 01:20,50.6304566666667,-96.9807733333333,7.8,10.2,352,981.57,-2.4,94,0.76,0.0,1009.55,270.0
2019-03-14 01:30,50.6304516666667,-96.980765,8.2,10.9,351,981.53,-2.2,93,0.77,0.0,1009.50,270.0
2019-03-14 01:40,50.6304466666667,-96.9807666666667,9.3,11.9,348,981.38,-1.8,88,0.77,0.0,1009.35,270.0
2019-03-14 01:50,50.6304466666667,-96.9807666666667,10.4,13.5,347,981.29,-1.4,83,0.77,0.0,1009.24,270.0
2019-03-14 02:00,50.6304466666667,-96.9807666666667,12.8,15.9,347,981.10,-0.8,78,0.78,0.0,1009.04,347.4
2019-03-14 02:10,50.630445,-96.9807666666667,13.7,17.9,348,980.99,-0.6,76,0.78,0.0,1008.91,347.4
2019-03-14 02:20,50.630445,-96.9807666666667,13.5,17.6,349,980.92,-0.5,75,0.77,0.0,1008.83,347.4
2019-03-14 02:30,50.6304466666667,-96.9807666666667,14.2,17.7,350,980.80,-0.4,75,0.77,0.0,1008.68,347.4
2019-03-14 02:40,50.6304516666667,-96.9808016666667,13.1,17.2,348,980.82,-0.4,75,0.77,0.0,1008.66,347.4
2019-03-14 02:50,50.63045,-96.980765,11.1,14.5,345,980.84,-0.3,74,0.77,0.0,1008.68,347.4
2019-03-14 03:00,50.6304466666667,-96.9807616666667,10.6,13.6,342,980.88,-0.1,72,0.76,0.0,1008.71,90.0
2019-03-14 03:10,50.6304466666667,-96.980765,10.7,14.4,345,980.93,-0.1,72,0.76,0.0,1008.72,90.0
2019-03-14 03:20,50.630445,-96.9807616666667,10.1,13.7,340,980.96,-0.1,72,0.77,0.0,1008.75,90.0
2019-03-14 03:30,50.6304433333333,-96.98077,10.2,13.6,340,981.01,-0.1,72,0.77,0.0,1008.77,90.0
2019-03-14 03:40,50.6304466666667,-96.980765,10.0,13.6,340,981.06,-0.2,72,0.76,0.0,1008.81,90.0
2019-03-14 03:50,50.6304483333333,-96.98077,10.6,13.9,339,981.07,-0.2,73,0.76,0.0,1008.79,90.0
2019-03-14 04:00,50.6304466666667,-96.98077,10.7,13.9,340,981.02,-0.2,73,0.76,0.0,1008.74,293.6
2019-03-14 04:10,50.63045,-96.9807716666667,11.1,16.1,338,980.90,-0.3,73,0.75,0.0,1008.61,293.6
2019-03-14 04:20,50.6304233333333,-96.980765,11.6,15.2,339,980.73,-0.3,74,0.75,0.0,1008.43,293.6
2019-03-14 04:30,50.630455,-96.9807733333333,10.6,14.6,339,980.65,-0.3,74,0.75,0.0,1008.34,293.6
2019-03-14 04:40,50.6304333333333,-96.9807616666667,11.2,15.4,342,980.64,-0.2,74,0.75,0.0,1008.33,293.6
2019-03-14 04:50,50.6304433333333,-96.9807683333333,10.4,14.4,341,980.59,-0.2,74,0.76,0.0,1008.26,293.6
2019-03-14 05:00,50.6304616666667,-96.980775,10.9,14.5,341,980.51,-0.2,74,0.77,0.0,1008.18,360.0
2019-03-14 05:10,50.6304766666667,-96.9807583333333,11.3,15.3,344,980.52,-0.2,75,0.77,0.0,1008.19,360.0
2019-03-14 05:20,50.6304566666667,-96.9807666666667,10.8,13.8,347,980.62,-0.2,76,0.75,0.0,1008.30,360.0
2019-03-14 05:30,50.630455,-96.9807666666667,11.2,14.6,346,980.51,-0.2,76,0.75,0.0,1008.18,360.0
2019-03-14 05:40,50.6304566666667,-96.9807666666667,11.5,14.2,345,980.37,-0.1,76,0.75,0.0,1008.03,360.0
2019-03-14 05:50,50.6304583333333,-96.98077,11.8,15.8,347,980.36,0.0,76,0.75,0.0,1008.02,360.0
2019-03-14 06:00,50.6304583333333,-96.9807683333333,12.9,17.3,345,980.24,0.2,75,0.75,0.0,1007.90,345.5
2019-03-14 06:10,50.6304583333333,-96.9807683333333,13.0,17.8,341,980.29,0.3,74,0.76,0.0,1007.95,345.5
2019-03-14 06:20,50.6304533333333,-96.980785,13.5,18.1,341,980.28,0.4,73,0.77,0.0,1007.92,345.5
2019-03-14 06:30,50.63046,-96.980755,13.4,17.8,337,980.18,0.5,73,0.77,0.0,1007.82,345.5
2019-03-14 06:40,50.6304516666667,-96.9807633333333,12.8,18.6,341,980.33,0.5,73,0.78,0.0,1007.96,345.5
2019-03-14 06:50,50.630455,-96.9807633333333,12.9,17.7,341,980.34,0.6,72,0.78,0.0,1007.97,345.5
2019-03-14 07:00,50.6304533333333,-96.980765,13.1,18.0,338,980.32,0.7,72,0.77,0.0,1007.95,38.0
2019-03-14 07:10,50.63045,-96.9807566666667,14.2,19.7,342,980.32,0.8,70,0.76,0.0,1007.94,38.0
2019-03-14 07:20,50.63045,-96.9807716666667,13.5,19.8,342,980.40,0.9,69,0.77,0.0,1008.02,38.0
2019-03-14 07:30,50.6304516666667,-96.9807733333333,13.8,17.6,341,980.57,1.0,68,0.77,0.0,1008.18,38.0
2019-03-14 07:40,50.6304516666667,-96.9807716666667,12.6,16.6,342,980.73,1.0,69,0.76,0.0,1008.34,38.0
2019-03-14 07:50,50.6304616666667,-96.9807983333333,13.3,19.1,341,980.77,1.1,68,0.76,0.0,1008.37,38.0
2019-03-14 08:00,50.6304583333333,-96.9807716666667,15.6,20.6,342,980.65,1.3,66,0.77,0.0,1008.23,360.0
2019-03-14 08:10,50.6304583333333,-96.9807716666667,16.1,22.4,343,980.61,1.4,66,0.77,0.0,1008.17,360.0
2019-03-14 08:20,50.6304533333333,-96.98077,16.9,22.5,344,980.53,1.6,65,0.76,0.0,1008.08,360.0
2019-03-14 08:30,50.6304533333333,-96.9807716666667,17.5,24.8,343,980.45,1.5,65,0.76,0.0,1008.00,360.0
2019-03-14 08:40,50.630455,-96.9807716666667,17.6,25.7,344,980.44,1.6,65,0.76,0.0,1007.98,360.0
2019-03-14 08:50,50.630455,-96.9807716666667,19.2,26.3,343,980.31,1.5,64,0.76,0.0,1007.85,360.0
2019-03-14 09:00,50.6304533333333,-96.9807716666667,18.3,25.7,345,980.29,1.5,64,0.77,0.0,1007.83,192.6
2019-03-14 09:10,50.63046,-96.9807633333333,17.8,22.4,348,980.36,1.4,65,0.77,0.0,1007.89,192.6
2019-03-14 09:20,50.6304783333333,-96.9807633333333,17.5,23.7,347,980.37,1.3,65,0.78,0.0,1007.91,192.6
2019-03-14 09:30,50.63046,-96.9807633333333,17.4,23.2,347,980.35,1.2,66,0.77,0.0,1007.89,192.6
2019-03-14 09:40,50.6304566666667,-96.98076,18.0,24.8,348,980.25,1.1,66,0.77,0.0,1007.78,192.6
2019-03-14 09:50,50.6304566666667,-96.9807616666667,17.3,23.8,350,980.21,1.1,66,0.78,0.0,1007.73,192.6
2019-03-14 10:00,50.6304566666667,-96.9807616666667,19.5,26.4,349,980.00,1.1,66,0.77,0.0,1007.51,90.0
2019-03-14 10:10,50.6304566666667,-96.9807633333333,18.5,23.9,349,979.99,1.1,66,0.76,0.0,1007.50,90.0
2019-03-14 10:20,50.6304583333333,-96.9807633333333,18.5,26.3,348,979.94,1.0,66,0.75,0.0,1007.45,90.0
2019-03-14 10:30,50.6304583333333,-96.980765,17.6,24.0,349,980.00,0.9,67,0.75,0.0,1007.52,90.0
2019-03-14 10:40,50.6304583333333,-96.980765,17.1,22.2,350,980.07,0.8,67,0.76,0.0,1007.59,90.0
2019-03-14 10:50,50.6304583333333,-96.9807666666667,17.9,24.9,348,980.00,0.7,67,0.76,0.0,1007.53,90.0
2019-03-14 11:00,50.6304583333333,-96.9807683333333,16.5,21.6,347,980.08,0.6,67,0.76,0.0,1007.62,90.0
2019-03-14 11:10,50.6304466666667,-96.9807766666667,16.3,21.6,342,980.06,0.6,67,0.76,0.0,1007.61,90.0
2019-03-14 11:20,50.6304466666667,-96.98078,19.0,26.8,340,979.91,0.6,66,0.75,0.0,1007.45,90.0
2019-03-14 11:30,50.6304483333333,-96.980775,18.1,26.1,342,979.98,0.5,67,0.75,0.0,1007.54,90.0
2019-03-14 11:40,50.6304483333333,-96.980775,18.4,25.3,344,980.10,0.3,67,0.75,0.0,1007.67,90.0
2019-03-14 11:50,50.6304483333333,-96.9807733333333,18.5,25.9,344,980.19,0.3,67,0.75,0.0,1007.76,90.0
2019-03-14 12:00,50.6304483333333,-96.9807733333333,19.5,27.0,342,980.08,0.3,67,0.75,0.0,1007.65,142.0
2019-03-14 12:10,50.63046,-96.9807816666667,19.2,26.8,344,980.10,0.2,67,0.75,0.0,1007.69,142.0
2019-03-14 12:20,50.6304433333333,-96.9807583333333,19.0,25.1,342,980.10,0.1,67,0.76,0.0,1007.70,142.0
2019-03-14 12:30,50.6304466666667,-96.9807683333333,19.2,25.2,343,980.22,-0.0,68,0.76,0.0,1007.82,142.0
2019-03-14 12:40,50.6304216666667,-96.980755,18.8,26.5,341,980.28,-0.0,67,0.76,0.0,1007.90,142.0
2019-03-14 12:50,50.6304183333333,-96.9807733333333,18.7,26.2,339,980.43,-0.1,67,0.77,0.0,1008.06,142.0
2019-03-14 13:00,50.630435,-96.98077,18.1,25.0,338,980.57,-0.1,67,0.77,0.0,1008.20,203.5
2019-03-14 13:10,50.6304366666667,-96.9807616666667,18.6,26.8,339,980.55,-0.2,67,0.76,0.0,1008.19,203.5
2019-03-14 13:20,50.6304333333333,-96.980765,19.5,26.8,338,980.56,-0.2,67,0.76,0.0,1008.20,203.5
2019-03-14 13:30,50.6304433333333,-96.98077,20.0,27.9,339,980.64,-0.4,67,0.76,0.0,1008.30,203.5
2019-03-14 13:40,50.6304416666667,-96.98076,19.3,25.9,341,980.83,-0.6,68,0.76,0.0,1008.51,203.5
2019-03-14 13:50,50.63044,-96.98076,18.7,26.0,341,980.89,-0.6,67,0.76,0.0,1008.57,203.5
2019-03-14 14:00,50.6304416666667,-96.9807616666667,17.9,23.4,343,980.95,-0.7,68,0.77,0.0,1008.65,360.0
2019-03-14 14:10,50.6304416666667,-96.9807633333333,18.3,24.1,340,980.83,-0.7,68,0.77,0.0,1008.53,360.0
2019-03-14 14:20,50.6304416666667,-96.980765,19.6,26.7,341,980.83,-0.7,68,0.76,0.0,1008.53,360.0
2019-03-14 14:30,50.6304416666667,-96.980765,19.9,28.3,341,980.81,-0.6,69,0.77,0.0,1008.51,360.0
2019-03-14 14:40,50.63044,-96.980765,19.6,28.2,343,980.90,-0.5,70,0.76,0.0,1008.59,360.0
2019-03-14 14:50,50.63044,-96.980765,19.3,30.0,342,980.92,-0.5,71,0.76,0.0,1008.61,360.0
2019-03-14 15:00,50.6304383333333,-96.9807666666667,20.4,26.8,342,980.87,-0.4,70,0.76,0.0,1008.57,131.7
2019-03-14 15:10,50.63044,-96.9807666666667,19.9,29.1,338,980.82,-0.3,70,0.76,0.0,1008.51,131.7
2019-03-14 15:20,50.63044,-96.9807666666667,21.4,31.3,338,980.84,-0.5,70,0.77,0.0,1008.55,131.7
2019-03-14 15:30,50.6304383333333,-96.9807666666667,20.4,27.8,339,981.06,-0.5,70,0.77,0.0,1008.78,131.7
2019-03-14 15:40,50.63044,-96.9807666666667,21.5,30.9,344,981.01,-0.4,68,0.76,0.0,1008.74,131.7
2019-03-14 15:50,50.63044,-96.9807683333333,24.5,32.9,346,980.89,-0.1,65,0.77,0.0,1008.60,131.7
2019-03-14 16:00,50.63044,-96.9807683333333,25.3,31.6,344,980.95,-0.0,63,0.76,0.0,1008.66,360.0
2019-03-14 16:10,50.63044,-96.9807683333333,22.5,33.4,344,981.20,0.1,62,0.75,0.0,1008.91,360.0
2019-03-14 16:20,50.6304416666667,-96.9807683333333,22.8,30.2,341,981.17,0.3,61,0.76,0.0,1008.86,360.0
2019-03-14 16:30,50.6304416666667,-96.9807683333333,22.1,33.3,346,981.24,0.5,60,0.76,0.0,1008.91,360.0
2019-03-14 16:40,50.6304416666667,-96.9807683333333,21.7,31.1,344,981.29,0.6,60,0.75,0.0,1008.96,360.0
2019-03-14 16:50,50.6304416666667,-96.9807683333333,21.7,29.6,340,981.27,0.8,59,0.76,0.0,1008.93,360.0
2019-03-14 17:00,50.6304416666667,-96.9807683333333,21.7,30.0,340,981.38,0.8,59,0.76,0.0,1009.04,270.0
2019-03-14 17:10,50.6304416666667,-96.98077,19.5,28.7,331,981.45,1.0,59,0.76,0.0,1009.11,270.0
2019-03-14 17:20,50.63045,-96.9807766666667,19.8,31.3,333,981.58,1.0,59,0.76,0.0,1009.24,270.0
2019-03-14 17:30,50.63045,-96.9807683333333,18.6,30.1,334,981.71,1.1,58,0.76,0.0,1009.36,270.0
2019-03-14 17:40,50.6304466666667,-96.9807666666667,19.1,30.0,333,981.72,1.2,58,0.76,0.0,1009.35,270.0
2019-03-14 17:50,50.63047,-96.98078,19.9,30.3,333,981.78,1.1,59,0.76,0.0,1009.42,270.0
2019-03-14 18:00,50.63042,-96.9807533333333,20.8,28.3,331,981.70,0.6,59,0.77,0.0,1009.36,165.5
2019-03-14 18:10,50.6304366666667,-96.9807633333333,20.3,31.1,328,981.74,0.2,60,0.77,0.0,1009.40,165.5
2019-03-14 18:20,50.630435,-96.9807883333333,21.3,31.5,329,981.77,0.1,60,0.77,0.0,1009.43,165.5
2019-03-14 18:30,50.63045,-96.980765,21.7,31.9,331,981.86,-0.1,60,0.78,0.0,1009.53,165.5
2019-03-14 18:40,50.6304483333333,-96.980765,22.0,34.7,328,981.79,-0.3,61,0.78,0.0,1009.45,165.5
2019-03-14 18:50,50.63045,-96.98077,19.8,33.2,332,982.12,-0.4,62,0.78,0.0,1009.80,165.5
2019-03-14 19:00,50.63045,-96.9807683333333,22.9,32.7,333,981.98,-0.6,62,0.78,0.0,1009.65,360.0
2019-03-14 19:10,50.63045,-96.9807683333333,20.7,29.9,332,982.16,-0.6,62,0.78,0.0,1009.85,360.0
2019-03-14 19:20,50.630455,-96.9807683333333,22.7,32.6,324,981.81,-0.8,62,0.78,0.0,1009.48,360.0
2019-03-14 19:30,50.630455,-96.9807716666667,22.0,34.4,330,981.97,-0.7,62,0.78,0.0,1009.64,360.0
2019-03-14 19:40,50.6304566666667,-96.98077,20.8,33.9,329,982.17,-0.7,62,0.79,0.0,1009.85,360.0
2019-03-14 19:50,50.6304433333333,-96.9807716666667,23.0,30.7,330,982.01,-0.6,62,0.79,0.0,1009.71,360.0
2019-03-14 20:00,50.6304533333333,-96.980775,23.8,36.1,334,982.10,-0.6,62,0.79,0.0,1009.82,345.5
2019-03-14 20:10,50.6304533333333,-96.980755,21.3,32.8,337,982.42,-0.6,62,0.79,0.0,1010.15,345.5
2019-03-14 20:20,50.6304516666667,-96.9807716666667,24.0,35.3,338,982.36,-0.6,62,0.79,0.0,1010.11,345.5
2019-03-14 20:30,50.6304483333333,-96.9807733333333,21.5,33.9,335,982.66,-0.4,62,0.79,0.0,1010.41,345.5
2019-03-14 20:40,50.630445,-96.9807683333333,21.8,36.0,335,982.68,-0.4,62,0.79,0.0,1010.44,345.5
2019-03-14 20:50,50.630445,-96.98077,22.7,32.9,331,982.63,-0.3,61,0.79,0.0,1010.39,345.5
2019-03-14 21:00,50.630445,-96.9807683333333,22.8,31.1,335,982.79,-0.3,61,0.79,0.0,1010.56,327.9
2019-03-14 21:10,50.630445,-96.9807683333333,23.3,33.9,335,982.90,-0.5,62,0.79,0.0,1010.70,327.9
2019-03-14 21:20,50.630445,-96.9807666666667,21.7,31.9,330,983.00,-0.6,61,0.79,0.0,1010.80,327.9
2019-03-14 21:30,50.630445,-96.9807666666667,21.2,34.4,334,983.20,-0.6,62,0.80,0.0,1010.99,327.9
2019-03-14 21:40,50.630445,-96.9807666666667,21.7,31.8,336,983.23,-0.7,62,0.80,0.0,1011.03,327.9
2019-03-14 21:50,50.6304466666667,-96.9807666666667,19.8,32.2,332,983.36,-0.7,63,0.80,0.0,1011.17,327.9
2019-03-14 22:00,50.6304466666667,-96.9807666666667,20.1,34.3,335,983.49,-0.8,63,0.81,0.0,1011.30,360.0
2019-03-14 22:10,50.6304466666667,-96.9807666666667,21.0,28.9,332,983.52,-1.0,63,0.81,0.0,1011.35,360.0
2019-03-14 22:20,50.630445,-96.980765,19.7,29.2,331,983.62,-1.2,64,0.81,0.0,1011.45,360.0
2019-03-14 22:30,50.630445,-96.980765,19.7,28.6,330,983.66,-1.3,64,0.81,0.0,1011.49,360.0
2019-03-14 22:40,50.630445,-96.9807583333333,19.7,32.5,332,983.77,-1.4,65,0.80,0.0,1011.60,360.0
2019-03-14 22:50,50.6304433333333,-96.98076,18.9,25.8,329,983.84,-1.4,66,0.80,0.0,1011.67,360.0
2019-03-14 23:00,50.6304416666667,-96.9807583333333,17.9,26.8,332,984.06,-1.4,67,0.81,0.0,1011.92,143.4
2019-03-14 23:10,50.6304433333333,-96.98076,17.4,26.2,334,984.19,-1.4,68,0.82,0.0,1012.05,143.4
2019-03-14 23:20,50.6304433333333,-96.9807616666667,17.1,25.1,335,984.31,-1.5,68,0.82,0.0,1012.18,143.4
